Location: Cluj-Napoca
(46.7712°N, 23.6236°E)
Time: 18:43:31
(UTC+03:00)

ISS - Pass Details

Date: 28 May 2020
Orbit: 417 x 420 km, 51.6° (Epoch: 26 May)

Event Time Altitude Azimuth Distance (km) Brightness Sun altitude
Rises 22:34:54 0° 295° (WNW) 2,367 1.4 -11.8°
Reaches altitude 10° 22:37:00 10° 297° (WNW) 1,502 0.2 -12.0°
Maximum altitude 22:40:22 81° 24° (NNE) 429 -3.7 -12.4°
Enters shadow 22:42:40 19° 112° (ESE) 1,066 -2.2 -12.6°
